Location: Newark
(7.0858°N, 171.3717°E)
Time: 13:28:48
(UTC+00:00)

Envisat - Visible Passes

Search period start: 22 October 2020 00:00
Search period end: 01 November 2020 00:00
Orbit: 764 x 766 km, 98.1° (Epoch: 21 October)

Date Brightness Start Highest point End Pass type
(mag) Time Alt. Az. Time Alt. Az. Time Alt. Az.
23 Oct 6.4 07:16:06 10° SW 07:18:30 13° W 07:20:55 10° WNW visible
23 Oct 3.7 18:01:52 10° NNE 18:06:52 61° ESE 18:11:52 10° S visible
24 Oct 4.8 06:37:05 10° S 06:41:46 38° WSW 06:46:27 10° NNW visible
24 Oct 5.8 17:26:19 10° NE 17:30:08 21° E 17:33:56 10° SSE visible
26 Oct 6.1 07:03:41 10° SW 07:07:10 19° W 07:10:37 10° WNW visible
26 Oct 4.4 17:50:42 10° NNE 17:55:31 44° ESE 18:00:20 10° S visible
27 Oct 6.2 17:15:48 10° ENE 17:18:46 16° E 17:21:46 10° SE visible
29 Oct 5.6 06:51:41 10° SSW 06:55:48 25° W 06:59:55 10° NW visible
29 Oct 5.1 17:39:40 10° NE 17:44:10 32° ESE 17:48:40 10° SSE visible
30 Oct 6.5 17:05:58 10° E 17:07:25 11° E 17:08:52 10° ESE visible
31 Oct 6.5 07:19:22 10° WSW 07:21:11 12° W 07:23:01 10° W visible
